Location: Kitchener
(43.4500°N, 80.5000°W)
Time: 18:34:08
(UTC-04:00)

Cosmos 1939 Rocket - Visible Passes

Search period start: 27 March 2017 00:00
Search period end: 06 April 2017 00:00
Orbit: 535 x 585 km, 97.5° (Epoch: 26 March)

Date Brightness Start Highest point End Pass type
(mag) Time Alt. Az. Time Alt. Az. Time Alt. Az.
27 Mar 5.0 20:09:41 10° E 20:11:12 12° ENE 20:12:43 10° NE visible
27 Mar 3.1 21:44:14 41° S 21:45:32 70° WSW 21:49:42 10° NNW visible
28 Mar 3.1 21:42:56 39° S 21:44:23 72° W 21:48:33 10° NNW visible
29 Mar 3.0 21:41:38 37° S 21:43:12 74° WSW 21:47:23 10° NNW visible
30 Mar 3.0 21:40:21 35° S 21:42:01 77° WSW 21:46:12 10° NNW visible
31 Mar 3.0 21:39:03 33° S 21:40:51 79° W 21:45:01 10° NNW visible
01 Apr 2.9 21:37:45 31° S 21:39:40 81° WSW 21:43:51 10° NNW visible
02 Apr 2.9 21:36:28 30° S 21:38:29 84° WSW 21:42:40 10° NNW visible
03 Apr 2.9 21:35:11 28° S 21:37:19 86° WSW 21:41:30 10° NNW visible
04 Apr 2.9 21:33:54 27° SSE 21:36:09 88° W 21:40:19 10° NNW visible
05 Apr 2.9 21:32:36 25° SSE 21:34:58 89° ENE 21:39:08 10° NNW visible
